| time (UTC) | temp F | wind direction | speed knots | gust knots | rain 1hr in | rain 24hr in | rain mn in | humidity % | barometer mb |
| 20260506021541 | 58 | 217 | 6.1 | 9.6 | 0.00 | 0.01 | 0.01 | 78 | 1012.1 |
| 20260506020003 | 58 | 259 | 4.3 | 7.8 | 0.00 | 0.01 | 0.01 | 77 | 1012.1 |
| 20260506014556 | 59 | 241 | 6.1 | 9.6 | 0.00 | 0.01 | 0.01 | 77 | 1012.1 |
| 20260506013023 | 59 | 252 | 5.2 | 9.6 | 0.00 | 0.01 | 0.01 | 76 | 1012.1 |
| 20260506011611 | 59 | 236 | 2.6 | 9.6 | 0.00 | 0.01 | 0.01 | 77 | 1012.0 |
| 20260506010031 | 59 | 250 | 5.2 | 8.7 | 0.00 | 0.01 | 0.01 | 77 | 1012.0 |
| 20260506004625 | 59 | 254 | 2.6 | 8.7 | 0.00 | 0.01 | 0.01 | 78 | 1012.0 |
| 20260506003045 | 58 | 284 | 6.1 | 13.0 | 0.00 | 0.01 | 0.01 | 78 | 1012.0 |
| 20260506001503 | 58 | 283 | 2.6 | 10.4 | 0.00 | 0.01 | 0.01 | 78 | 1011.8 |
| 20260506000101 | 58 | 276 | 7.0 | 13.9 | 0.00 | 0.01 | 0.01 | 77 | 1011.7 |
| 20260505234517 | 59 | 292 | 7.8 | 13.0 | 0.00 | 0.01 | 0.01 | 77 | 1011.5 |
| 20260505233114 | 59 | 274 | 4.3 | 8.7 | 0.00 | 0.01 | 0.01 | 77 | 1011.7 |
| 20260505231537 | 60 | 268 | 4.3 | 12.2 | 0.00 | 0.01 | 0.01 | 76 | 1011.6 |
| 20260505230005 | 61 | 271 | 1.7 | 8.7 | 0.00 | 0.01 | 0.01 | 74 | 1011.6 |
| 20260505224556 | 62 | 320 | 4.3 | 7.8 | 0.00 | 0.01 | 0.01 | 71 | 1011.4 |
| 20260505223018 | 62 | 360 | 0.0 | 3.5 | 0.00 | 0.01 | 0.01 | 70 | 1011.5 |
| 20260505221609 | 62 | 329 | 0.0 | 3.5 | 0.00 | 0.01 | 0.01 | 69 | 1011.7 |
| 20260505220030 | 62 | 19 | 0.9 | 6.1 | 0.00 | 0.01 | 0.01 | 71 | 1011.6 |
| 20260505214625 | 62 | 228 | 1.7 | 6.1 | 0.00 | 0.01 | 0.01 | 69 | 1011.8 |
| 20260505213056 | 61 | 308 | 3.5 | 7.8 | 0.00 | 0.01 | 0.01 | 70 | 1012.0 |
| 20260505211507 | 61 | 281 | 3.5 | 8.7 | 0.00 | 0.01 | 0.01 | 72 | 1012.0 |
| 20260505210106 | 61 | 329 | 2.6 | 7.8 | 0.00 | 0.01 | 0.01 | 74 | 1012.0 |
| 20260505204532 | 61 | 309 | 0.9 | 5.2 | 0.00 | 0.01 | 0.01 | 73 | 1011.9 |
| 20260505203130 | 61 | 360 | 3.5 | 8.7 | 0.00 | 0.01 | 0.01 | 72 | 1011.9 |
| 20260505201542 | 61 | 342 | 0.0 | 3.5 | 0.00 | 0.01 | 0.01 | 74 | 1012.0 |
| 20260505200003 | 61 | 269 | 1.7 | 7.8 | 0.00 | 0.01 | 0.01 | 74 | 1012.1 |
| 20260505194607 | 60 | 271 | 6.1 | 9.6 | 0.00 | 0.01 | 0.01 | 75 | 1012.3 |
| 20260505193010 | 59 | 131 | 0.9 | 3.5 | 0.00 | 0.01 | 0.01 | 80 | 1012.3 |
| 20260505191604 | 58 | 202 | 0.0 | 4.3 | 0.00 | 0.01 | 0.01 | 80 | 1012.4 |
| 20260505190020 | 58 | 203 | 3.5 | 5.2 | 0.00 | 0.01 | 0.01 | 82 | 1012.3 |
| 20260505184611 | 57 | 344 | 0.0 | 2.6 | 0.00 | 0.01 | 0.01 | 85 | 1012.3 |
| 20260505183029 | 57 | 286 | 0.9 | 7.0 | 0.00 | 0.01 | 0.01 | 85 | 1012.4 |
| 20260505181626 | 57 | 10 | 0.9 | 3.5 | 0.00 | 0.01 | 0.01 | 85 | 1012.3 |
| 20260505180040 | 57 | 327 | 0.0 | 1.7 | 0.00 | 0.01 | 0.01 | 85 | 1012.2 |
| 20260505174634 | 56 | 224 | 0.9 | 1.7 | 0.00 | 0.01 | 0.01 | 86 | 1012.1 |
| 20260505173052 | 56 | 15 | 0.0 | 2.6 | 0.00 | 0.01 | 0.01 | 87 | 1012.0 |
| 20260505171516 | 55 | 38 | 0.0 | 2.6 | 0.00 | 0.01 | 0.01 | 87 | 1011.9 |
| 20260505170112 | 55 | 55 | 1.7 | 3.5 | 0.00 | 0.01 | 0.01 | 88 | 1011.8 |
| 20260505164546 | 55 | 28 | 0.0 | 2.6 | 0.00 | 0.01 | 0.01 | 90 | 1011.8 |
| 20260505163119 | 54 | 98 | 0.0 | 2.6 | 0.00 | 0.01 | 0.01 | 90 | 1011.8 |
| 20260505161543 | 54 | 294 | 0.0 | 0.9 | 0.00 | 0.01 | 0.01 | 91 | 1011.7 |
| 20260505160130 | 53 | 294 | 0.0 | 1.7 | 0.00 | 0.01 | 0.01 | 91 | 1011.8 |
| 20260505153011 | 53 | 296 | 0.0 | 1.7 | 0.00 | 0.01 | 0.01 | 92 | 1011.6 |
| 20260505151606 | 52 | 296 | 0.0 | 2.6 | 0.00 | 0.01 | 0.01 | 92 | 1011.4 |
| 20260505130113 | 50 | 219 | 0.0 | 1.7 | 0.00 | 0.01 | 0.01 | 91 | 1010.8 |
| 20260505124537 | 50 | 170 | 1.7 | 4.3 | 0.01 | 0.01 | 0.01 | 91 | 1011.1 |
| 20260505123127 | 50 | 262 | 1.7 | 5.2 | 0.01 | 0.01 | 0.01 | 91 | 1011.2 |
| 20260505121552 | 50 | 144 | 2.6 | 4.3 | 0.01 | 0.01 | 0.01 | 91 | 1010.8 |
| 20260505120010 | 50 | 236 | 0.9 | 1.7 | 0.01 | 0.01 | 0.01 | 91 | 1011.0 |
| 20260505114605 | 50 | 236 | 0.0 | 1.7 | 0.00 | 0.00 | 0.00 | 91 | 1011.1 |
| 20260505113034 | 50 | 236 | 0.9 | 1.7 | 0.00 | 0.00 | 0.00 | 91 | 1011.2 |
| 20260505111631 | 50 | 128 | 0.0 | 1.7 | 0.00 | 0.00 | 0.00 | 91 | 1011.2 |
| 20260505101515 | 50 | 160 | 2.6 | 5.2 | 0.00 | 0.00 | 0.00 | 90 | 1011.1 |
| 20260505100105 | 51 | 163 | 0.9 | 2.6 | 0.00 | 0.00 | 0.00 | 90 | 1011.2 |
| 20260505094522 | 51 | 204 | 0.0 | 1.7 | 0.00 | 0.00 | 0.00 | 90 | 1011.2 |
| 20260505093116 | 51 | 204 | 0.0 | 0.9 | 0.00 | 0.00 | 0.00 | 90 | 1011.3 |
| 20260505091551 | 51 | 197 | 0.0 | 1.7 | 0.00 | 0.00 | 0.00 | 90 | 1011.5 |
| 20260505090133 | 51 | 197 | 1.7 | 2.6 | 0.00 | 0.00 | 0.00 | 89 | 1011.6 |
| 20260505084555 | 51 | 181 | 1.7 | 3.5 | 0.00 | 0.00 | 0.00 | 89 | 1011.7 |
| 20260505083011 | 51 | 148 | 0.9 | 2.6 | 0.00 | 0.00 | 0.00 | 89 | 1011.9 |
| 20260505081605 | 51 | 355 | 0.0 | 1.7 | 0.00 | 0.00 | 0.00 | 89 | 1011.9 |
| 20260505080035 | 51 | 351 | 0.0 | 0.9 | 0.00 | 0.00 | 0.00 | 89 | 1012.1 |
| 20260505074620 | 51 | 355 | 0.0 | 2.6 | 0.00 | 0.00 | 0.00 | 88 | 1012.3 |
| 20260505073038 | 51 | 324 | 0.0 | 1.7 | 0.00 | 0.00 | 0.00 | 88 | 1012.2 |
| 20260505071633 | 51 | 242 | 0.0 | 0.0 | 0.00 | 0.00 | 0.00 | 88 | 1012.0 |
| 20260505070053 | 51 | 241 | 0.9 | 1.7 | 0.00 | 0.00 | 0.00 | 88 | 1011.8 |
| 20260505064616 | 51 | 242 | 0.0 | 1.7 | 0.00 | 0.00 | 0.00 | 87 | 1011.7 |
| 20260505063039 | 51 | 194 | 0.9 | 1.7 | 0.00 | 0.00 | 0.00 | 87 | 1011.7 |
| 20260505061629 | 52 | 210 | 0.0 | 0.9 | 0.00 | 0.00 | 0.00 | 87 | 1011.4 |
| 20260505060054 | 52 | 211 | 0.0 | 0.0 | 0.00 | 0.00 | 0.00 | 86 | 1011.4 |
| 20260505054518 | 52 | 211 | 0.9 | 1.7 | 0.00 | 0.00 | 0.00 | 85 | 1011.5 |
| 20260505053105 | 52 | 335 | 0.0 | 3.5 | 0.00 | 0.00 | 0.00 | 85 | 1011.7 |
| 20260505051528 | 52 | 13 | 1.7 | 4.3 | 0.00 | 0.00 | 0.00 | 86 | 1011.9 |
| 20260505050118 | 52 | 11 | 0.0 | 1.7 | 0.00 | 0.00 | 0.00 | 85 | 1012.1 |
| 20260505041548 | 53 | 109 | 0.0 | 1.7 | 0.00 | 0.00 | 0.00 | 82 | 1011.4 |
| 20260505040012 | 53 | 109 | 0.0 | 1.7 | 0.00 | 0.00 | 0.00 | 81 | 1011.3 |
| 20260505034608 | 53 | 113 | 0.9 | 2.6 | 0.00 | 0.00 | 0.00 | 80 | 1011.2 |
| 20260505033035 | 54 | 222 | 0.0 | 1.7 | 0.00 | 0.00 | 0.00 | 79 | 1010.8 |
| 20260505031624 | 55 | 222 | 0.9 | 2.6 | 0.00 | 0.00 | 0.00 | 78 | 1010.7 |
| 20260505030040 | 56 | 299 | 0.9 | 1.7 | 0.00 | 0.00 | 0.00 | 75 | 1010.7 |
| 20260505024506 | 56 | 299 | 0.0 | 0.9 | 0.00 | 0.00 | 0.00 | 71 | 1010.7 |
| 20260505023059 | 57 | 275 | 2.6 | 5.2 | 0.00 | 0.00 | 0.00 | 69 | 1010.6 |